CW4114 Weather Reports


time (UTC)temp
F
wind
direction
speed
knots
gust
knots
rain 1hr
in
rain 24hr
in
rain mn
in
humidity
%
barometer
mb
20260503234358 49 289 7.8 12.2 0.03 0.01 0.03 80 1002.1
20260503233858 52 344 3.5 12.2 0.00 0.01 0.01 71 1001.8
20260503233621 58 11 6.1 12.2 0.00 0.01 0.01 64 1001.1
20260503232352 59 259 3.5 10.4 0.00 0.01 0.01 62 1000.3
20260503231856 59 271 2.6 10.4 0.00 0.01 0.01 62 1000.3
20260503231351 59 250 4.3 6.1 0.00 0.01 0.01 62 1000.1
20260503230852 59 274 2.6 7.8 0.00 0.01 0.01 62 1000.2
20260503230352 59 250 3.5 7.8 0.00 0.01 0.01 62 1000.2
20260503225852 59 238 3.5 6.1 0.00 0.01 0.01 62 1000.2
20260503225352 59 240 0.9 7.8 0.00 0.01 0.01 63 1000.3
20260503224847 59 245 4.3 10.4 0.00 0.01 0.01 62 1000.5
20260503224347 59 262 5.2 11.3 0.00 0.01 0.01 63 1000.6
20260503223847 59 213 5.2 11.3 0.00 0.01 0.01 62 1000.6
20260503223347 59 281 4.3 10.4 0.00 0.01 0.01 63 1000.6
20260503222846 59 262 5.2 11.3 0.00 0.01 0.01 62 1000.7
20260503222616 59 288 6.1 14.8 0.00 0.01 0.01 63 1000.8
20260503222117 59 268 9.6 14.8 0.00 0.01 0.01 62 1000.8
20260503221345 59 245 7.8 11.3 0.00 0.01 0.01 63 1000.9
20260503220839 59 237 5.2 13.9 0.00 0.01 0.01 63 1000.9
20260503220337 59 226 7.8 16.5 0.00 0.01 0.01 64 1000.9
20260503215833 58 238 8.7 16.5 0.00 0.01 0.01 64 1001.0
20260503215332 58 227 7.8 14.8 0.00 0.01 0.01 63 1001.0
20260503215101 58 261 7.8 15.6 0.00 0.01 0.01 63 1001.1
20260503214332 59 264 9.6 15.6 0.00 0.01 0.01 62 1001.1
20260503213834 59 231 9.6 15.6 0.00 0.01 0.01 64 1001.1
20260503213325 58 220 7.0 14.8 0.00 0.01 0.01 64 1001.0
20260503212823 58 219 5.2 15.6 0.00 0.01 0.01 63 1001.1
20260503212332 58 251 9.6 15.6 0.00 0.01 0.01 64 1001.3
20260503210824 47 340 0.0 6.1 0.00 0.01 0.01 84 1001.3
20260503210323 46 62 2.6 5.2 0.00 0.01 0.01 88 1001.4
20260503205821 45 121 3.5 7.8 0.00 0.01 0.01 87 1001.5
20260503205550 44 95 1.7 7.8 0.00 0.01 0.01 87 1001.8
20260503204821 44 79 3.5 8.7 0.00 0.01 0.01 86 1001.8
20260503204323 44 90 5.2 8.7 0.00 0.01 0.01 86 1001.8
20260503203822 44 75 4.3 11.3 0.00 0.01 0.01 85 1001.8
20260503203320 44 106 3.5 11.3 0.00 0.01 0.01 85 1001.8
20260503202821 44 65 5.2 9.6 0.00 0.01 0.01 85 1001.9
20260503202545 44 110 4.3 9.6 0.00 0.01 0.01 85 1002.1
20260503202048 44 87 4.3 8.7 0.00 0.01 0.01 83 1002.0
20260503201547 45 87 5.2 8.7 0.00 0.01 0.01 83 1002.1
20260503200820 46 80 5.2 8.7 0.00 0.01 0.01 81 1002.1
20260503200320 47 73 3.5 7.8 0.00 0.01 0.01 80 1002.2
20260503195819 48 82 3.5 7.8 0.00 0.01 0.01 82 1002.3
20260503195320 48 97 4.3 7.8 0.00 0.01 0.01 83 1002.4
20260503195050 48 56 3.5 5.2 0.00 0.01 0.01 83 1002.5
20260503194322 48 75 1.7 5.2 0.00 0.01 0.01 85 1002.6
20260503193820 47 95 0.9 7.8 0.00 0.01 0.01 85 1002.5
20260503193550 47 76 4.3 8.7 0.00 0.01 0.01 86 1002.7
20260503193044 46 100 5.2 8.7 0.00 0.01 0.01 85 1002.8
20260503192324 46 89 5.2 8.7 0.00 0.01 0.01 84 1003.0
20260503191820 47 85 4.3 7.8 0.00 0.01 0.01 86 1003.1
20260503191320 46 44 3.5 9.6 0.00 0.01 0.01 85 1003.1
20260503190815 46 109 3.5 9.6 0.00 0.01 0.01 84 1003.1
20260503190317 46 96 5.2 7.8 0.00 0.01 0.01 83 1003.3
20260503185809 46 41 4.3 6.1 0.00 0.01 0.01 82 1003.3
20260503185320 47 103 5.2 8.7 0.00 0.01 0.01 80 1003.3
20260503184805 48 137 3.5 8.7 0.00 0.01 0.01 80 1003.3
20260503184759 48 93 4.3 7.8 0.00 0.01 0.01 80 1003.3
20260503183805 49 80 3.5 6.1 0.00 0.01 0.01 82 1003.3
20260503183528 49 106 4.3 6.1 0.00 0.01 0.01 81 1003.4
20260503183030 50 95 2.6 6.1 0.00 0.01 0.01 83 1003.5
20260503182306 50 141 3.5 6.1 0.00 0.01 0.01 84 1003.7
20260503181308 48 138 3.5 5.2 0.00 0.01 0.01 87 1003.9
20260503180804 47 188 2.6 5.2 0.00 0.01 0.01 87 1004.0
20260503180332 46 137 0.9 3.5 0.00 0.01 0.01 89 1004.2
20260503175804 45 147 1.7 3.5 0.00 0.01 0.01 87 1004.2
20260503175306 45 142 1.7 5.2 0.00 0.01 0.01 88 1004.4
20260503174919 44 147 2.6 5.2 0.00 0.01 0.01 89 1004.4
20260503174304 44 144 3.5 5.2 0.00 0.01 0.01 90 1004.4
20260503174030 43 135 1.7 4.3 0.00 0.01 0.01 91 1004.4
20260503173303 43 100 2.6 3.5 0.00 0.01 0.01 91 1004.5
20260503173036 42 89 1.7 3.5 0.00 0.01 0.01 91 1004.5
20260503172305 42 121 2.6 3.5 0.00 0.01 0.01 90 1004.6
20260503171805 42 99 0.9 2.6 0.00 0.01 0.01 90 1004.8
20260503171303 41 96 0.0 3.5 0.01 0.01 0.01 90 1004.8
20260503171025 41 128 1.7 3.5 0.01 0.01 0.01 90 1004.9
20260503170301 40 31 0.0 3.5 0.01 0.01 0.01 89 1005.0
20260503150741 42 161 0.9 4.3 0.00 0.00 0.00 80 1005.5
20260503150514 43 102 2.6 4.3 0.00 0.00 0.00 80 1005.4
20260503140214 44 188 0.9 3.5 0.00 0.00 0.00 71 1006.0
20260503131030 43 275 2.6 6.1 0.00 0.00 0.00 61 1006.6
20260503130528 43 243 3.5 7.8 0.00 0.00 0.00 61 1006.7
20260503110510 38 203 2.6 6.1 0.00 0.00 0.00 61 1007.1
20260503090511 35 231 4.3 6.1 0.00 0.00 0.00 64 1008.1
20260503081502 35 227 5.2 7.8 0.00 0.00 0.00 64 1008.8
20260503080959 35 228 4.3 7.8 0.00 0.00 0.00 64 1008.9
20260503080459 35 238 4.3 7.8 0.00 0.00 0.00 64 1009.0
20260503072458 35 188 3.5 5.2 0.00 0.00 0.00 68 1009.2
20260503071957 34 243 3.5 5.2 0.00 0.00 0.00 68 1009.2
20260503071722 34 244 3.5 4.3 0.00 0.00 0.00 69 1009.4
20260503070957 34 244 3.5 5.2 0.00 0.00 0.00 70 1009.4
20260503070457 34 237 3.5 5.2 0.00 0.00 0.00 70 1009.6
20260503054955 34 245 3.5 6.1 0.00 0.00 0.00 78 1010.4
20260503054455 34 228 3.5 6.1 0.00 0.00 0.00 79 1010.5
20260503053954 34 231 3.5 5.2 0.00 0.00 0.00 79 1010.5
20260503053454 34 212 3.5 5.2 0.00 0.00 0.00 79 1010.6
20260503052955 34 227 3.5 5.2 0.00 0.00 0.00 80 1010.6
20260503052457 34 217 1.7 4.3 0.00 0.00 0.00 80 1010.6
20260503051956 34 217 2.6 4.3 0.00 0.00 0.00 81 1010.8
20260503051454 34 210 2.6 4.3 0.00 0.00 0.00 81 1010.8
20260503050954 33 213 2.6 4.3 0.00 0.00 0.00 81 1010.8
20260503050453 33 216 2.6 3.5 0.00 0.00 0.00 81 1010.8
20260503045957 33 220 2.6 3.5 0.00 0.00 0.00 81 1010.9
20260503045720 33 223 1.7 3.5 0.00 0.00 0.00 81 1010.9
20260503044955 33 231 1.7 3.5 0.00 0.00 0.00 81 1011.0
20260503044453 33 219 1.7 3.5 0.00 0.00 0.00 80 1011.0
20260503043953 33 217 1.7 2.6 0.00 0.00 0.00 80 1011.1
20260503043454 33 234 1.7 2.6 0.00 0.00 0.00 79 1011.2
20260503042952 33 237 0.9 1.7 0.00 0.00 0.00 78 1011.2
20260503042453 33 226 0.9 1.7 0.00 0.00 0.00 78 1011.2
20260503041952 33 261 0.9 1.7 0.00 0.00 0.00 77 1011.2
20260503041452 34 261 0.9 1.7 0.00 0.00 0.00 77 1011.3
20260503040952 34 261 0.0 0.9 0.00 0.00 0.00 77 1011.4
20260503040452 34 262 0.0 0.9 0.00 0.00 0.00 77 1011.5
20260503040234 34 262 0.0 0.9 0.00 0.00 0.00 76 1011.5
20260503035452 34 262 0.0 0.0 0.00 0.00 0.00 76 1011.6
20260503034951 35 262 0.0 1.7 0.00 0.00 0.00 75 1011.5
20260503034454 35 262 0.0 1.7 0.00 0.00 0.00 74 1011.6
20260503033953 35 245 0.0 0.0 0.00 0.00 0.00 73 1011.6
20260503033451 36 245 0.0 0.0 0.00 0.00 0.00 72 1011.6
20260503032951 36 245 0.0 0.0 0.00 0.00 0.00 72 1011.7
20260503032452 36 245 0.0 0.0 0.00 0.00 0.00 72 1011.8
20260503031950 37 244 0.0 0.0 0.00 0.00 0.00 71 1011.7
20260503031450 37 264 0.0 0.0 0.00 0.00 0.00 71 1011.8
20260503030952 37 272 0.0 0.0 0.00 0.00 0.00 71 1011.8
20260503030450 37 272 0.0 0.9 0.00 0.00 0.00 70 1011.9
20260503025952 38 281 0.0 0.9 0.00 0.00 0.00 70 1011.9
20260503025451 38 316 0.0 0.9 0.00 0.00 0.00 69 1012.0
20260503025226 38 309 0.0 0.9 0.00 0.00 0.00 68 1012.0
20260503024717 38 302 0.0 0.9 0.00 0.00 0.00 67 1012.1
20260503023949 38 316 0.0 0.9 0.00 0.00 0.00 67 1012.1
20260503023451 38 326 0.9 0.9 0.00 0.00 0.00 67 1012.1
20260503023223 38 350 0.0 1.7 0.00 0.00 0.00 67 1012.1
20260503022449 38 230 0.0 1.7 0.00 0.00 0.00 67 1012.0
20260503021948 38 202 0.0 3.5 0.00 0.00 0.00 67 1012.1
20260503021448 38 149 0.9 3.5 0.00 0.00 0.00 68 1012.0
20260503021220 38 195 0.0 1.7 0.00 0.00 0.00 69 1012.0
20260503015949 38 158 0.9 3.5 0.00 0.00 0.00 70 1012.0
20260503015448 38 186 1.7 3.5 0.00 0.00 0.00 70 1012.0
20260503014948 38 158 1.7 2.6 0.00 0.00 0.00 71 1011.9
20260503014447 38 137 1.7 2.6 0.00 0.00 0.00 71 1011.9
20260503013948 38 172 0.0 1.7 0.00 0.00 0.00 71 1011.9
20260503013447 39 166 0.0 1.7 0.00 0.00 0.00 70 1011.9
20260503012951 39 165 0.0 3.5 0.00 0.00 0.00 70 1011.9
20260503012448 39 166 0.0 3.5 0.00 0.00 0.00 71 1011.9
20260503012214 40 213 0.9 1.7 0.00 0.00 0.00 69 1011.8
20260503011558 40 213 0.0 1.7 0.00 0.00 0.00 69 1011.8
20260503011037 40 213 0.0 1.7 0.00 0.00 0.00 68 1011.8
20260503010445 40 213 0.9 0.9 0.00 0.00 0.00 67 1011.8
20260503005947 40 31 0.0 0.0 0.00 0.00 0.00 66 1011.8
20260503005448 41 31 0.0 0.0 0.00 0.00 0.00 65 1011.7
20260503004946 41 31 0.0 0.0 0.00 0.00 0.00 64 1011.6
20260503004447 41 37 0.0 0.0 0.00 0.00 0.00 63 1011.7
20260503003946 42 37 0.0 0.0 0.00 0.00 0.00 62 1011.7
20260503003444 42 37 0.0 1.7 0.00 0.00 0.00 62 1011.6
20260503002942 42 30 0.0 1.7 0.00 0.00 0.00 61 1011.7
20260503002443 42 323 0.0 2.6 0.00 0.00 0.00 60 1011.6
20260503001940 42 25 0.9 2.6 0.00 0.00 0.00 59 1011.6
20260503001437 43 27 0.0 1.7 0.00 0.00 0.00 59 1011.7
20260503001205 43 8 0.9 2.6 0.00 0.00 0.00 59 1011.8
20260503000438 43 0 0.0 3.5 0.00 0.00 0.00 59 1011.7
20260502235938 43 24 0.9 4.3 0.00 0.00 0.00 58 1011.9
20260502235442 43 336 1.7 4.3 0.00 0.00 0.00 57 1011.9
20260502235205 43 2 2.6 6.1 0.00 0.00 0.00 59 1011.9